Location: Strawberry
(45.6646°N, 111.9596°W)
Time: 20:16:30
(UTC+00:00)

Courier 1B - Pass Details

Date: 11 October 2022
Orbit: 962 x 1209 km, 28.3° (Epoch: 29 November)

Event Time Altitude Azimuth Distance (km) Brightness Sun altitude
Rises 22:23:58 0° 250° (WSW) 4,072 12.0 22.3°
Reaches altitude 10° 22:28:39 10° 226° (SW) 3,068 12.2 21.6°
Maximum altitude 22:31:56 13° 200° (SSW) 2,787 11.0 21.1°
Drops below altitude 10° 22:35:10 10° 174° (S) 2,992 10.5 20.7°
Sets 22:39:38 0° 149° (SSE) 3,890 10.7 20.0°
